| time (UTC) | temp F | wind direction | speed knots | gust knots | rain 1hr in | rain 24hr in | rain mn in | humidity % | barometer mb |
| 20260906140032 | 67 | 150 | 0.9 | 3.5 | 0.00 | 0.00 | 0.00 | 99 | 1021.0 |
| 20260906135030 | 66 | 86 | 0.9 | 2.6 | 0.00 | 0.00 | 0.00 | 99 | 1020.9 |
| 20260906134027 | 66 | 60 | 0.0 | 1.7 | 0.00 | 0.00 | 0.00 | 99 | 1020.8 |
| 20260906133025 | 66 | 0.0 | 0.9 | 0.00 | 0.00 | 0.00 | 99 | 1020.8 | |
| 20260906132023 | 65 | 0.0 | 0.0 | 0.00 | 0.00 | 0.00 | 99 | 1020.8 | |
| 20260906131020 | 64 | 101 | 0.0 | 0.9 | 0.00 | 0.00 | 0.00 | 99 | 1020.6 |
| 20260906130018 | 63 | 64 | 0.0 | 0.9 | 0.00 | 0.00 | 0.00 | 99 | 1020.6 |
| 20260906125016 | 62 | 0.0 | 0.0 | 0.00 | 0.00 | 0.00 | 99 | 1020.3 | |
| 20260906124034 | 61 | 0.0 | 0.9 | 0.00 | 0.00 | 0.00 | 99 | 1020.0 | |
| 20260906123032 | 61 | 0.0 | 0.9 | 0.00 | 0.00 | 0.00 | 99 | 1019.9 | |
| 20260906122029 | 61 | 128 | 0.0 | 0.9 | 0.00 | 0.00 | 0.00 | 99 | 1020.0 |
| 20260906121028 | 61 | 0.0 | 0.0 | 0.00 | 0.00 | 0.00 | 99 | 1020.1 | |
| 20260906120025 | 61 | 0.0 | 0.0 | 0.00 | 0.00 | 0.00 | 99 | 1019.8 | |
| 20260906115023 | 61 | 0.0 | 0.0 | 0.00 | 0.00 | 0.00 | 99 | 1019.6 | |
| 20260906114042 | 61 | 0.0 | 0.0 | 0.00 | 0.00 | 0.00 | 99 | 1019.6 | |
| 20260906113038 | 61 | 0.0 | 0.0 | 0.00 | 0.00 | 0.00 | 99 | 1019.4 | |
| 20260906112036 | 62 | 212 | 0.0 | 1.7 | 0.00 | 0.00 | 0.00 | 99 | 1019.2 |
| 20260906111054 | 62 | 120 | 0.9 | 1.7 | 0.00 | 0.00 | 0.00 | 99 | 1019.1 |
| 20260906110032 | 62 | 0.0 | 0.9 | 0.00 | 0.00 | 0.00 | 99 | 1019.1 | |
| 20260906105049 | 63 | 59 | 0.0 | 0.9 | 0.00 | 0.00 | 0.00 | 99 | 1019.2 |
| 20260906104027 | 63 | 41 | 0.0 | 1.7 | 0.00 | 0.00 | 0.00 | 99 | 1019.3 |
| 20260906103025 | 63 | 63 | 0.9 | 0.9 | 0.00 | 0.00 | 0.00 | 99 | 1019.2 |
| 20260906102023 | 63 | 60 | 0.0 | 0.9 | 0.00 | 0.00 | 0.00 | 99 | 1019.1 |
| 20260906101022 | 62 | 40 | 0.0 | 1.7 | 0.00 | 0.00 | 0.00 | 99 | 1019.3 |
| 20260906100021 | 62 | 0.0 | 0.9 | 0.00 | 0.00 | 0.00 | 99 | 1019.0 | |
| 20260906095018 | 62 | 0.0 | 0.9 | 0.00 | 0.00 | 0.00 | 99 | 1018.9 | |
| 20260906094034 | 62 | 64 | 0.0 | 1.7 | 0.00 | 0.00 | 0.00 | 99 | 1019.1 |
| 20260906093052 | 62 | 42 | 0.0 | 1.7 | 0.00 | 0.00 | 0.00 | 99 | 1018.9 |
| 20260906092051 | 63 | 54 | 0.9 | 1.7 | 0.00 | 0.00 | 0.00 | 99 | 1018.9 |
| 20260906091029 | 63 | 45 | 0.0 | 1.7 | 0.00 | 0.00 | 0.00 | 99 | 1018.9 |
| 20260906090027 | 63 | 0.0 | 0.9 | 0.00 | 0.00 | 0.00 | 99 | 1018.8 | |
| 20260906085023 | 63 | 83 | 0.9 | 1.7 | 0.00 | 0.00 | 0.00 | 99 | 1018.8 |
| 20260906084021 | 63 | 41 | 0.9 | 1.7 | 0.00 | 0.00 | 0.00 | 99 | 1018.7 |
| 20260906083019 | 63 | 50 | 0.9 | 1.7 | 0.00 | 0.00 | 0.00 | 99 | 1018.7 |
| 20260906082016 | 63 | 45 | 0.9 | 1.7 | 0.00 | 0.00 | 0.00 | 99 | 1018.7 |
| 20260906081035 | 63 | 72 | 0.0 | 1.7 | 0.00 | 0.00 | 0.00 | 99 | 1018.8 |
| 20260906080033 | 62 | 0.0 | 0.0 | 0.00 | 0.00 | 0.00 | 99 | 1018.6 | |
| 20260906075030 | 62 | 105 | 0.0 | 0.9 | 0.00 | 0.00 | 0.00 | 99 | 1018.7 |
| 20260906074028 | 62 | 0.0 | 0.9 | 0.00 | 0.00 | 0.00 | 99 | 1018.6 | |
| 20260906073026 | 62 | 0.0 | 0.9 | 0.00 | 0.00 | 0.00 | 99 | 1018.6 | |
| 20260906072043 | 61 | 124 | 0.0 | 0.9 | 0.00 | 0.00 | 0.00 | 99 | 1018.4 |
| 20260906071021 | 61 | 146 | 0.0 | 1.7 | 0.00 | 0.00 | 0.00 | 99 | 1018.4 |
| 20260906070059 | 61 | 0.0 | 0.0 | 0.00 | 0.00 | 0.00 | 99 | 1018.5 | |
| 20260906065017 | 61 | 0.0 | 0.9 | 0.00 | 0.00 | 0.00 | 99 | 1018.4 | |
| 20260906064035 | 61 | 0.0 | 0.0 | 0.00 | 0.00 | 0.00 | 99 | 1018.7 | |
| 20260906063052 | 61 | 0.0 | 0.9 | 0.00 | 0.00 | 0.00 | 99 | 1018.7 | |
| 20260906062030 | 61 | 0.0 | 0.0 | 0.00 | 0.00 | 0.00 | 99 | 1018.6 | |
| 20260906061028 | 61 | 0.0 | 0.0 | 0.00 | 0.00 | 0.00 | 98 | 1018.5 | |
| 20260906060026 | 61 | 141 | 0.0 | 1.7 | 0.00 | 0.00 | 0.00 | 98 | 1018.4 |
| 20260906055023 | 61 | 0.0 | 0.0 | 0.00 | 0.00 | 0.00 | 98 | 1018.4 | |
| 20260906054041 | 61 | 0.0 | 0.9 | 0.00 | 0.00 | 0.00 | 98 | 1018.4 | |
| 20260906053019 | 61 | 0.0 | 0.0 | 0.00 | 0.00 | 0.00 | 98 | 1018.4 | |
| 20260906052017 | 61 | 0.0 | 0.9 | 0.00 | 0.00 | 0.00 | 98 | 1018.4 | |
| 20260906051035 | 62 | 0.0 | 0.9 | 0.00 | 0.00 | 0.00 | 98 | 1018.4 | |
| 20260906050033 | 62 | 135 | 0.0 | 1.7 | 0.00 | 0.00 | 0.00 | 98 | 1018.1 |
| 20260906045030 | 62 | 72 | 0.0 | 0.9 | 0.00 | 0.00 | 0.00 | 98 | 1018.1 |
| 20260906044028 | 62 | 0.0 | 0.0 | 0.00 | 0.00 | 0.00 | 98 | 1018.2 | |
| 20260906043026 | 62 | 74 | 0.0 | 0.9 | 0.00 | 0.00 | 0.00 | 98 | 1018.3 |
| 20260906042024 | 62 | 0.0 | 0.0 | 0.00 | 0.00 | 0.00 | 98 | 1018.1 | |
| 20260906041022 | 62 | 0.0 | 0.0 | 0.00 | 0.00 | 0.00 | 98 | 1018.0 | |
| 20260906040020 | 63 | 0.0 | 0.0 | 0.00 | 0.00 | 0.00 | 98 | 1017.9 | |
| 20260906035037 | 63 | 0.0 | 0.9 | 0.00 | 0.00 | 0.00 | 97 | 1018.0 | |
| 20260906034016 | 63 | 114 | 0.0 | 1.7 | 0.00 | 0.00 | 0.00 | 97 | 1017.9 |
| 20260906033053 | 64 | 0.0 | 0.0 | 0.00 | 0.00 | 0.00 | 97 | 1017.8 | |
| 20260906032031 | 64 | 30 | 0.0 | 0.9 | 0.00 | 0.00 | 0.00 | 97 | 1018.0 |
| 20260906031029 | 64 | 37 | 0.0 | 1.7 | 0.00 | 0.00 | 0.00 | 97 | 1017.9 |
| 20260906030027 | 64 | 25 | 0.0 | 0.9 | 0.00 | 0.00 | 0.00 | 97 | 1017.9 |
| 20260906025025 | 65 | 37 | 0.0 | 1.7 | 0.00 | 0.00 | 0.00 | 97 | 1017.9 |
| 20260906024023 | 65 | 50 | 0.0 | 0.9 | 0.00 | 0.00 | 0.00 | 96 | 1017.9 |
| 20260906023020 | 65 | 34 | 0.0 | 1.7 | 0.00 | 0.00 | 0.00 | 96 | 1017.8 |
| 20260906022019 | 66 | 33 | 0.9 | 1.7 | 0.00 | 0.00 | 0.00 | 96 | 1017.6 |
| 20260906021016 | 66 | 46 | 0.0 | 1.7 | 0.00 | 0.00 | 0.00 | 95 | 1017.8 |
| 20260906020034 | 66 | 0.0 | 0.9 | 0.00 | 0.00 | 0.00 | 94 | 1017.6 | |
| 20260906015032 | 67 | 54 | 0.0 | 0.9 | 0.00 | 0.00 | 0.00 | 94 | 1017.5 |
| 20260906014029 | 68 | 40 | 0.0 | 1.7 | 0.00 | 0.00 | 0.00 | 93 | 1017.4 |
| 20260906013027 | 68 | 0.0 | 0.9 | 0.00 | 0.00 | 0.00 | 93 | 1017.3 | |
| 20260906012025 | 69 | 29 | 0.9 | 1.7 | 0.00 | 0.00 | 0.00 | 92 | 1017.3 |
| 20260906011023 | 70 | 46 | 0.0 | 0.9 | 0.00 | 0.00 | 0.00 | 90 | 1017.5 |
| 20260906010040 | 70 | 12 | 0.0 | 0.9 | 0.00 | 0.00 | 0.00 | 90 | 1017.5 |
| 20260906005018 | 70 | 142 | 0.0 | 0.9 | 0.00 | 0.00 | 0.00 | 90 | 1017.6 |
| 20260906004016 | 70 | 225 | 0.0 | 0.9 | 0.00 | 0.00 | 0.00 | 90 | 1017.5 |
| 20260906003033 | 70 | 4 | 0.0 | 1.7 | 0.00 | 0.00 | 0.00 | 89 | 1017.3 |
| 20260906002031 | 71 | 39 | 0.0 | 1.7 | 0.00 | 0.00 | 0.00 | 89 | 1017.4 |
| 20260906001029 | 71 | 21 | 0.0 | 1.7 | 0.00 | 0.00 | 0.00 | 88 | 1017.5 |
| 20260906000027 | 71 | 17 | 0.9 | 1.7 | 0.00 | 0.00 | 0.00 | 89 | 1017.4 |
| 20260905235025 | 71 | 66 | 0.0 | 2.6 | 0.00 | 0.00 | 0.00 | 88 | 1017.4 |
| 20260905234022 | 71 | 7 | 0.9 | 1.7 | 0.00 | 0.00 | 0.00 | 88 | 1017.6 |
| 20260905233040 | 72 | 25 | 0.9 | 1.7 | 0.00 | 0.00 | 0.00 | 87 | 1017.5 |
| 20260905232018 | 72 | 13 | 0.0 | 1.7 | 0.00 | 0.00 | 0.00 | 87 | 1017.4 |
| 20260905231056 | 72 | 24 | 0.9 | 1.7 | 0.00 | 0.00 | 0.00 | 87 | 1017.3 |
| 20260905230034 | 73 | 16 | 0.9 | 2.6 | 0.00 | 0.00 | 0.00 | 86 | 1017.4 |
| 20260905225032 | 73 | 12 | 0.9 | 1.7 | 0.00 | 0.00 | 0.00 | 87 | 1017.3 |
| 20260905224030 | 73 | 47 | 0.0 | 1.7 | 0.00 | 0.00 | 0.00 | 86 | 1017.4 |
| 20260905223029 | 73 | 50 | 0.9 | 2.6 | 0.00 | 0.00 | 0.00 | 86 | 1017.1 |
| 20260905222025 | 73 | 36 | 0.9 | 2.6 | 0.00 | 0.00 | 0.00 | 87 | 1017.1 |
| 20260905221043 | 73 | 35 | 0.9 | 2.6 | 0.00 | 0.00 | 0.00 | 86 | 1016.9 |
| 20260905220021 | 73 | 15 | 1.7 | 2.6 | 0.00 | 0.00 | 0.00 | 87 | 1016.7 |
| 20260905215019 | 73 | 15 | 0.9 | 3.5 | 0.00 | 0.00 | 0.00 | 86 | 1016.7 |
| 20260905214057 | 73 | 18 | 1.7 | 5.2 | 0.00 | 0.00 | 0.00 | 86 | 1016.7 |
| 20260905213035 | 73 | 13 | 0.9 | 3.5 | 0.00 | 0.00 | 0.00 | 87 | 1016.7 |
| 20260905212032 | 73 | 16 | 0.9 | 2.6 | 0.00 | 0.00 | 0.00 | 87 | 1016.8 |
| 20260905211030 | 74 | 353 | 0.9 | 3.5 | 0.00 | 0.00 | 0.00 | 86 | 1016.8 |
| 20260905210028 | 75 | 20 | 0.9 | 3.5 | 0.00 | 0.00 | 0.00 | 85 | 1016.8 |
| 20260905205025 | 75 | 18 | 0.9 | 2.6 | 0.00 | 0.00 | 0.00 | 83 | 1016.8 |
| 20260905204023 | 76 | 17 | 0.9 | 2.6 | 0.00 | 0.00 | 0.00 | 82 | 1016.8 |
| 20260905203041 | 76 | 356 | 0.9 | 2.6 | 0.00 | 0.00 | 0.00 | 82 | 1016.6 |
| 20260905202020 | 76 | 3 | 0.9 | 1.7 | 0.00 | 0.00 | 0.00 | 81 | 1016.6 |
| 20260905201017 | 77 | 35 | 0.9 | 2.6 | 0.00 | 0.00 | 0.00 | 80 | 1016.6 |
| 20260905200035 | 77 | 12 | 0.9 | 2.6 | 0.00 | 0.00 | 0.00 | 80 | 1016.5 |
| 20260905195053 | 76 | 352 | 0.9 | 2.6 | 0.00 | 0.00 | 0.00 | 82 | 1016.7 |
| 20260905194030 | 76 | 14 | 1.7 | 3.5 | 0.00 | 0.00 | 0.00 | 81 | 1016.7 |
| 20260905193028 | 77 | 30 | 1.7 | 3.5 | 0.00 | 0.00 | 0.00 | 81 | 1016.7 |
| 20260905192046 | 76 | 353 | 0.0 | 1.7 | 0.00 | 0.00 | 0.00 | 83 | 1016.6 |
| 20260905191043 | 77 | 6 | 0.9 | 1.7 | 0.00 | 0.00 | 0.00 | 82 | 1016.7 |
| 20260905190021 | 77 | 348 | 0.9 | 4.3 | 0.00 | 0.00 | 0.00 | 83 | 1016.7 |
| 20260905185019 | 76 | 7 | 0.9 | 1.7 | 0.00 | 0.00 | 0.00 | 83 | 1016.6 |
| 20260905184017 | 78 | 12 | 1.7 | 3.5 | 0.00 | 0.00 | 0.00 | 81 | 1016.7 |
| 20260905183034 | 78 | 8 | 1.7 | 4.3 | 0.00 | 0.00 | 0.00 | 79 | 1016.6 |
| 20260905182033 | 78 | 29 | 0.9 | 3.5 | 0.00 | 0.00 | 0.00 | 80 | 1016.7 |
| 20260905181030 | 79 | 20 | 0.9 | 4.3 | 0.00 | 0.00 | 0.00 | 79 | 1016.6 |
| 20260905180048 | 78 | 344 | 1.7 | 3.5 | 0.00 | 0.00 | 0.00 | 79 | 1016.7 |
| 20260905175026 | 79 | 27 | 1.7 | 3.5 | 0.00 | 0.00 | 0.00 | 78 | 1016.6 |
| 20260905174023 | 79 | 349 | 0.9 | 1.7 | 0.00 | 0.00 | 0.00 | 77 | 1016.5 |
| 20260905173042 | 79 | 356 | 0.9 | 2.6 | 0.00 | 0.00 | 0.00 | 76 | 1016.7 |
| 20260905172019 | 78 | 32 | 1.7 | 3.5 | 0.00 | 0.00 | 0.00 | 77 | 1016.7 |
| 20260905171017 | 76 | 12 | 0.9 | 3.5 | 0.00 | 0.00 | 0.00 | 81 | 1016.7 |
| 20260905170055 | 76 | 359 | 0.9 | 3.5 | 0.00 | 0.00 | 0.00 | 82 | 1016.8 |
| 20260905165033 | 77 | 25 | 1.7 | 3.5 | 0.00 | 0.00 | 0.00 | 80 | 1016.8 |
| 20260905164030 | 77 | 22 | 1.7 | 7.0 | 0.00 | 0.00 | 0.00 | 79 | 1016.8 |
| 20260905163029 | 78 | 21 | 1.7 | 5.2 | 0.00 | 0.00 | 0.00 | 77 | 1016.7 |
| 20260905162046 | 78 | 15 | 0.9 | 2.6 | 0.00 | 0.00 | 0.00 | 78 | 1016.7 |
| 20260905161044 | 78 | 24 | 0.9 | 3.5 | 0.00 | 0.00 | 0.00 | 77 | 1016.7 |
| 20260905160022 | 78 | 338 | 1.7 | 3.5 | 0.00 | 0.00 | 0.00 | 78 | 1016.7 |
| 20260905155020 | 79 | 354 | 1.7 | 6.1 | 0.00 | 0.01 | 0.00 | 78 | 1016.7 |
| 20260905154018 | 79 | 359 | 1.7 | 2.6 | 0.00 | 0.01 | 0.00 | 77 | 1016.5 |
| 20260905153015 | 78 | 354 | 0.9 | 1.7 | 0.00 | 0.01 | 0.00 | 80 | 1016.6 |
| 20260905152033 | 75 | 30 | 0.9 | 2.6 | 0.00 | 0.02 | 0.00 | 84 | 1016.5 |
| 20260905151031 | 75 | 49 | 0.9 | 3.5 | 0.00 | 0.02 | 0.00 | 86 | 1016.5 |
| 20260905150029 | 75 | 25 | 0.9 | 2.6 | 0.00 | 0.03 | 0.00 | 87 | 1016.4 |
| 20260905145026 | 73 | 19 | 0.9 | 1.7 | 0.00 | 0.14 | 0.00 | 89 | 1016.2 |
| 20260905144024 | 73 | 24 | 1.7 | 4.3 | 0.00 | 0.14 | 0.00 | 91 | 1016.1 |
| 20260905143022 | 72 | 11 | 0.9 | 2.6 | 0.00 | 0.14 | 0.00 | 94 | 1015.9 |
| 20260905142019 | 71 | 15 | 0.9 | 1.7 | 0.00 | 0.24 | 0.00 | 98 | 1015.8 |
| 20260905141037 | 70 | 23 | 0.9 | 2.6 | 0.00 | 0.25 | 0.00 | 98 | 1015.8 |